GFSFLT1_700_temp_105.txt.gz
Temp
7 7 7 7 7 6 6 8 8 8 8 7 7 7 6 6 6 6 6 6 5 4 4 3 3 3 2 3 2 2 2 1
7 7 7 7 6 6 8 8 8 8 8 8 7 7 6 6 6 6 6 6 5 4 4 3 2 2 3 3 2 2 2 1
7 7 7 6 6 7 8 8 8 8 8 8 7 7 6 6 6 6 6 6 5 4 4 3 2 2 2 3 1 2 1 2
7 6 6 6 6 6 7 8 8 8 8 8 8 7 7 7 6 6 6 6 5 3 3 3 3 2 2 2 2 1 1 1
5 5 5 5 5 5 6 7 7 8 8 8 8 8 7 6 6 6 6 6 5 4 4 3 2 2 1 2 1 1 2 1
3 3 4 4 5 5 5 6 7 7 8 8 8 8 7 7 6 6 6 6 5 5 3 3 2 2 1 1 2 2 1 1
3 3 3 4 4 5 5 6 7 7 7 8 8 8 7 7 6 6 6 6 5 5 4 3 2 2 2 1 1 0 0 0
1 2 3 3 4 5 5 5 7 7 7 8 8 8 7 6 6 6 6 6 6 5 4 3 3 2 2 2 1 1 1 1
3 4 3 3 3 4 4 4 7 7 7 8 8 8 7 6 6 6 6 6 6 5 4 3 3 2 2 2 2 1 1 1
3 4 4 3 3 3 4 5 6 6 8 8 8 8 7 6 6 6 6 6 6 6 4 3 4 3 2 2 2 1 1 2
3 3 4 4 3 3 4 6 6 7 8 8 8 7 6 6 6 6 6 6 6 6 5 4 4 4 3 3 2 2 1 1
3 4 3 4 3 3 5 6 6 8 8 8 8 7 6 6 5 6 6 6 6 6 5 5 4 4 4 3 3 2 1 2
2 3 3 3 4 3 6 6 7 8 8 8 7 6 6 6 5 6 6 6 6 6 5 5 4 4 4 4 3 2 1 1
2 2 2 3 3 5 5 6 7 7 7 6 6 6 6 5 5 6 6 6 6 6 5 5 4 4 3 3 3 3 2 2
1 1 1 2 4 4 5 5 6 6 6 6 6 6 5 5 5 5 6 5 5 5 5 5 5 4 4 3 3 3 3 2
-0 0 -0 2 2 3 4 5 6 6 6 5 6 5 5 5 5 5 5 5 5 5 5 5 4 4 3 3 3 3 3 3
-1 -1 -1 0 2 2 2 3 5 6 4 5 5 4 4 4 5 4 5 5 5 5 4 4 4 3 4 3 3 3 3 3
-2 -1 -2 -3 0 1 2 2 2 2 4 2 3 3 4 4 4 4 4 4 4 4 4 3 3 4 4 4 4 4 3 3
-3 -3 -2 -3 -3 -1 1 2 2 2 2 2 2 2 3 3 3 3 3 3 2 2 3 3 4 4 4 3 3 3 3 2

GFSFLT1_700_temp_108.txt.gz
Temp
7 7 8 8 8 8 8 8 7 8 8 8 8 8 8 7 7 7 7 6 6 6 5 5 4 4 3 3 3 3 2 2
8 7 7 8 8 8 8 8 7 8 8 8 8 8 8 7 7 7 7 6 6 6 5 5 4 3 3 3 3 3 3 2
7 7 7 7 7 8 7 7 7 8 8 8 8 8 8 7 7 7 7 6 6 6 6 6 4 3 3 3 3 2 1 2
7 7 7 7 7 7 7 7 6 7 8 8 8 8 8 7 7 7 6 7 6 6 6 5 4 3 2 3 3 2 2 2
7 7 7 7 7 7 6 6 6 6 7 8 7 8 8 8 7 7 6 6 6 6 6 5 4 3 3 3 2 2 2 1
5 5 5 6 6 6 6 6 5 5 6 7 7 8 8 8 7 7 7 7 6 6 6 6 5 4 3 2 2 2 1 1
3 3 3 4 5 6 5 5 5 5 5 7 7 7 7 8 8 7 7 6 6 6 6 6 4 4 3 2 2 2 2 1
3 2 3 3 3 3 5 5 5 5 5 6 7 7 7 8 8 7 7 7 6 6 6 6 4 3 3 2 2 2 1 1
3 3 4 4 4 4 3 4 5 4 4 5 7 6 7 7 7 7 7 7 6 6 6 6 4 3 3 2 2 1 1 1
3 3 3 4 4 4 4 4 4 4 4 5 6 6 7 7 7 7 6 7 6 6 6 6 5 3 3 3 2 1 2 1
2 3 4 4 4 4 4 4 4 4 4 4 5 6 6 6 7 7 6 7 6 6 6 6 5 4 4 3 2 2 2 1
2 2 3 4 3 3 3 3 3 4 3 4 5 6 6 6 7 6 6 6 6 6 6 6 5 5 4 4 3 2 1 1
1 2 2 2 2 3 3 3 2 3 4 4 5 5 5 4 6 6 6 6 6 6 6 5 5 4 5 4 4 3 3 2
1 1 3 2 2 2 2 4 3 2 3 4 4 4 3 4 6 6 6 6 6 6 6 5 4 4 4 4 4 4 3 2
-1 -0 1 2 1 1 2 3 3 2 3 4 4 3 3 3 6 6 6 6 5 5 5 5 4 4 4 4 4 3 3 2
-2 -2 -1 1 0 1 2 2 2 3 3 2 2 3 3 3 5 5 5 5 5 5 5 5 4 4 4 4 3 3 3 2
-2 -3 -2 -0 -1 0 1 1 1 2 3 2 2 2 2 4 5 5 5 5 5 5 5 4 4 5 4 4 4 3 3 2
-4 -3 -3 -2 -2 -2 -0 1 1 1 1 1 1 2 4 3 3 4 4 4 4 4 4 4 4 4 4 4 3 3 2 2
-4 -4 -4 -4 -3 -3 -4 -2 0 1 1 1 2 2 2 2 2 3 3 2 3 4 3 3 3 3 3 3 2 2 2 2

GFSFLT1_700_temp_111.txt.gz
Temp
8 7 8 7 8 8 8 8 8 8 7 7 8 8 8 8 8 7 7 7 6 6 6 6 6 5 4 3 3 3 3 3
8 8 7 7 7 8 8 8 8 8 8 7 7 8 8 8 8 7 7 7 6 6 6 6 6 5 4 3 3 3 3 3
7 8 7 7 7 8 8 8 8 8 8 7 7 7 8 8 8 7 7 7 6 6 6 6 6 6 4 4 3 3 3 2
7 7 7 7 7 7 7 7 7 7 7 7 7 7 7 8 8 7 7 7 6 6 6 6 6 6 5 4 3 3 3 2
7 7 7 7 7 7 7 7 7 7 7 7 7 7 7 8 8 7 7 6 6 6 6 6 6 6 5 4 3 3 2 2
6 6 6 6 6 7 7 6 6 7 7 6 6 6 6 7 7 7 7 7 6 6 6 6 6 5 5 4 3 3 2 3
6 6 6 6 6 6 6 6 5 5 5 6 6 6 6 7 7 7 7 7 6 6 6 6 6 5 5 4 3 2 2 2
5 5 5 5 6 6 6 5 5 5 4 5 5 5 5 6 6 7 7 7 7 6 6 6 6 5 5 4 3 2 2 2
4 4 4 4 4 5 6 6 5 5 5 4 4 5 5 5 6 6 7 7 6 6 6 6 6 6 5 4 3 1 2 2
3 3 3 4 4 5 5 5 6 6 5 5 4 4 4 5 5 6 7 6 6 6 6 6 6 6 5 4 3 2 2 1
2 2 3 3 4 4 4 4 4 5 4 4 4 4 4 4 5 6 6 6 6 6 5 6 6 6 5 4 3 2 2 2
2 2 2 3 4 4 4 3 3 3 3 3 4 4 3 4 4 5 6 6 6 5 5 6 6 6 5 5 4 3 2 1
1 1 2 3 3 3 3 2 3 3 3 3 3 3 4 4 4 5 6 6 5 5 5 6 6 6 5 5 4 3 2 1
-1 0 1 2 2 1 2 2 2 2 3 3 3 3 3 3 3 5 5 5 5 5 5 5 5 5 5 5 4 3 2 2
-3 -2 -1 1 1 1 1 1 2 2 1 2 2 2 2 2 3 2 2 4 5 5 5 5 5 5 5 4 5 4 3 2
-3 -3 -3 -1 0 -0 1 1 1 2 2 2 2 3 3 3 3 3 3 3 4 5 5 4 4 5 5 4 4 4 3 2
-4 -3 -4 -3 -2 -2 -0 0 1 1 1 1 1 2 2 3 2 3 2 3 4 4 2 4 4 5 4 4 3 3 3 3
-5 -4 -4 -4 -4 -3 -2 -1 -0 1 1 1 1 2 1 3 2 2 2 2 3 2 2 2 4 4 4 3 3 3 3 3
-5 -5 -5 -5 -5 -4 -4 -3 -2 -2 0 1 1 1 1 2 2 1 2 2 1 2 2 2 2 3 3 2 2 2 2 3

GFSFLT1_700_temp_117.txt.gz
Temp
7 7 7 7 7 8 8 8 8 8 8 7 7 7 7 7 7 7 7 7 7 7 7 7 6 6 6 6 5 5 4 4
6 7 7 7 7 8 8 8 8 8 8 8 8 8 7 7 7 7 7 7 7 7 7 7 6 6 6 6 5 5 5 4
6 6 7 7 8 8 7 7 7 8 8 8 8 8 7 7 7 7 7 7 7 7 7 7 6 6 6 6 6 5 5 4
5 5 6 6 7 8 7 7 7 7 7 7 7 7 8 6 6 6 6 7 7 7 7 6 6 6 6 6 5 5 5 4
5 3 5 6 7 7 8 7 7 7 7 7 7 7 8 7 7 7 6 7 6 7 7 6 6 6 6 5 5 5 5 5
5 5 5 6 7 7 7 7 7 7 7 7 6 6 6 6 6 6 6 6 6 6 6 6 6 6 6 5 5 5 4 4
5 6 6 6 7 7 7 7 7 7 7 7 6 6 6 6 5 5 5 5 5 6 6 6 6 6 6 5 5 5 5 4
5 5 6 6 6 6 7 7 7 7 7 6 6 6 6 6 5 5 4 5 4 5 5 6 6 6 6 5 5 5 5 4
3 3 5 5 6 6 6 6 6 6 6 6 6 6 6 6 6 4 4 4 5 4 4 5 6 6 5 5 5 5 5 4
2 3 4 4 5 6 6 6 6 6 5 5 6 6 6 6 5 5 5 5 5 5 4 5 6 5 5 5 5 5 5 4
2 3 4 4 5 5 6 6 6 5 6 5 5 5 5 5 5 5 4 5 4 4 4 4 5 5 5 5 5 5 5 4
1 2 3 4 4 4 5 5 5 5 5 5 4 4 4 4 4 4 4 4 4 3 4 4 5 5 5 5 5 5 5 4
0 1 2 3 3 4 4 4 4 4 4 4 4 4 3 3 3 3 3 3 3 3 3 3 4 5 5 4 5 5 5 4
-1 -1 1 1 2 3 3 3 4 3 2 2 2 3 3 3 3 3 3 3 3 3 3 3 3 4 4 4 4 5 5 4
-2 -1 0 0 1 2 2 3 3 2 1 1 1 1 2 3 3 2 3 3 3 2 3 2 3 4 4 4 4 5 5 4
-3 -3 -2 -1 -0 -0 -0 1 0 1 1 1 2 1 2 2 2 2 2 2 2 2 2 2 2 3 3 4 4 5 5 4
-5 -4 -3 -3 -2 -2 -2 -2 -2 -1 0 0 1 1 1 1 1 2 1 2 2 2 2 1 2 3 4 3 4 4 4 4
-4 -4 -3 -3 -3 -3 -3 -3 -3 -2 -1 0 -0 0 0 -0 -0 1 1 2 2 2 2 0 1 2 2 3 3 3 3 3
-4 -4 -4 -4 -4 -4 -4 -4 -4 -4 -3 -3 -2 -1 -1 -0 -1 -0 0 1 1 2 0 0 1 1 2 2 2 2 2 2

GFSFLT1_700_temp_123.txt.gz
Temp
4 5 6 6 7 7 8 8 7 7 7 7 6 6 6 7 7 7 7 7 7 7 7 7 6 7 6 6 6 6 5 5
4 4 5 6 6 7 7 7 7 7 7 6 6 6 7 7 7 7 7 7 7 7 6 6 6 6 6 6 6 6 6 5
1 3 4 5 6 6 7 7 7 6 7 6 6 6 6 6 7 7 7 7 7 7 6 6 6 6 6 6 6 6 6 6
1 1 3 5 6 6 7 7 6 6 6 6 6 6 7 7 7 7 7 7 7 6 6 6 6 6 6 6 6 6 6 5
0 1 2 4 5 6 6 6 7 7 7 7 7 7 7 7 7 7 7 7 6 6 6 6 6 6 6 6 6 6 6 6
-0 1 2 2 4 5 6 6 6 6 6 7 7 7 7 7 7 7 7 6 6 6 6 6 6 5 5 5 5 5 6 5
0 1 2 2 3 4 5 6 6 6 6 6 6 7 7 6 6 6 7 6 6 6 5 5 5 4 4 4 5 5 5 5
-1 1 2 3 3 4 5 6 6 5 6 6 5 5 6 6 6 6 6 6 6 6 6 5 4 4 3 4 4 4 5 4
-2 -1 1 3 3 4 5 5 5 6 6 5 6 6 5 6 6 6 6 6 6 5 5 4 4 5 4 3 4 4 4 4
-2 -1 -0 1 2 4 5 4 3 3 4 4 4 4 4 5 6 6 6 6 6 5 5 5 4 4 4 2 4 4 4 4
-2 -2 -1 -0 1 2 3 3 3 2 3 2 3 2 3 3 4 5 5 6 5 5 4 4 4 4 4 4 4 4 4 4
-4 -2 -1 -0 0 1 1 2 2 2 2 1 1 2 3 4 5 5 5 5 5 4 4 4 3 4 3 4 3 4 4 4
-6 -4 -3 -2 -1 0 1 1 0 -0 0 1 1 3 4 4 4 5 5 4 4 4 4 4 4 3 3 3 3 3 3 3
-6 -4 -4 -4 -4 -2 0 0 1 2 3 3 4 4 3 3 4 4 4 4 4 4 3 3 3 3 3 3 3 3 3 3
-6 -5 -5 -4 -3 -3 -2 -2 0 2 2 3 3 2 1 2 2 2 2 3 2 2 2 3 3 3 3 3 2 2 2 2
-6 -6 -6 -5 -5 -4 -3 -2 -1 -0 -0 0 0 -1 -1 -0 1 1 1 1 2 2 2 2 2 2 3 3 2 2 1 2
-7 -6 -5 -5 -4 -4 -3 -3 -2 -2 -2 -1 -1 -1 -1 -1 -0 0 1 1 1 1 2 1 2 1 1 2 2 2 2 2
-6 -6 -5 -5 -4 -4 -3 -3 -3 -3 -3 -2 -2 -3 -3 -2 -2 -1 -1 -0 -0 0 0 1 1 1 1 0 0 1 1 2
-6 -5 -5 -5 -5 -4 -4 -3 -3 -3 -3 -3 -3 -3 -2 -2 -2 -2 -1 -1 -1 -1 -1 -1 -0 -0 1 1 0 1 0 -0

GFSFLT1_700_temp_129.txt.gz
Temp
-1 -0 -1 -1 -0 1 4 5 5 3 7 7 8 8 8 8 8 8 8 8 7 7 7 7 7 7 7 7 7 6 6 6
-1 -0 0 -1 -2 1 4 6 6 4 4 6 8 8 8 9 8 8 8 8 7 7 7 7 7 7 7 6 6 6 6 6
-1 -1 -1 -0 -1 -1 1 5 4 5 4 5 7 8 8 8 8 8 8 7 7 7 7 7 7 7 7 7 6 6 6 6
-2 -2 -2 -1 -0 -0 -0 1 3 3 4 5 5 6 8 8 8 7 7 7 7 7 7 7 7 7 7 7 6 6 6 6
-4 -4 -3 -2 -1 -1 -1 0 1 2 3 5 4 5 7 8 7 7 7 7 6 7 6 6 7 7 6 7 6 6 5 5
-6 -5 -4 -3 -2 -1 -1 -1 0 1 2 5 5 5 6 7 7 6 6 6 6 6 6 6 6 6 7 6 6 6 6 5
-7 -6 -4 -4 -3 -2 -2 -0 0 1 2 4 5 5 6 5 6 5 6 6 6 6 6 6 6 6 7 6 6 5 5 4
-7 -6 -5 -4 -3 -3 -2 -1 1 2 2 2 4 5 5 5 5 3 4 5 6 6 6 6 6 6 6 6 6 5 5 5
-7 -6 -5 -3 -3 -3 -2 -2 -0 2 2 2 2 5 4 5 3 2 3 4 6 6 6 6 6 6 6 5 5 5 4 4
-8 -6 -5 -5 -3 -2 -1 -1 -0 1 2 3 2 4 3 4 4 2 4 3 5 6 6 6 5 5 5 5 5 5 4 4
-7 -7 -6 -4 -3 -2 -1 -1 -0 1 1 2 2 2 2 3 3 3 3 4 4 5 6 5 5 5 4 5 4 5 4 4
-7 -7 -7 -6 -5 -2 -1 -0 -0 0 1 1 0 0 1 1 2 2 3 4 5 5 5 5 5 5 5 5 4 4 4 4
-7 -7 -7 -6 -5 -3 -1 -1 -0 -0 1 1 -0 0 1 1 3 3 4 4 4 4 4 4 4 5 5 5 4 3 3 3
-7 -7 -6 -6 -6 -4 -3 -2 -1 -0 -1 -0 -0 0 1 1 1 2 1 1 2 3 3 3 3 3 4 4 3 3 4 3
-7 -7 -6 -6 -6 -5 -5 -4 -2 -1 -1 -0 -0 0 1 1 0 1 0 -0 1 1 2 1 3 3 4 3 3 3 3 3
-8 -8 -8 -7 -6 -5 -5 -5 -4 -3 -2 -2 -1 -1 -0 0 -1 -1 -1 -0 0 -0 -0 1 1 1 1 1 1 2 2 2
-7 -7 -8 -6 -5 -5 -6 -5 -5 -4 -3 -3 -3 -2 -2 -2 -2 -1 -1 -2 -1 -0 -0 -0 -0 1 1 1 1 1 2 2
-7 -7 -7 -6 -6 -5 -4 -4 -4 -4 -4 -3 -3 -3 -3 -3 -3 -3 -2 -2 -2 -2 -1 -1 -1 -1 -1 -0 -1 1 1 1
-6 -6 -6 -5 -5 -5 -5 -5 -4 -4 -3 -3 -3 -3 -3 -3 -3 -3 -2 -2 -2 -2 -2 -2 -2 -2 -2 -2 -1 -1 -0 -0

GFSFLT1_700_temp_132.txt.gz
Temp
1 0 0 1 0 1 4 6 5 5 4 5 6 6 6 7 8 9 8 8 8 8 8 7 7 7 7 7 7 7 7 7
0 0 -1 -0 1 0 -1 2 6 5 5 4 6 6 6 7 8 8 8 8 8 7 8 7 7 7 7 7 7 6 6 6
-0 -0 0 0 0 1 1 -0 1 3 3 3 4 6 6 6 7 8 8 8 8 7 7 8 7 7 7 7 7 6 6 6
-1 -1 -1 -0 -1 -0 1 1 0 1 1 3 3 6 6 6 6 8 8 7 7 7 7 7 7 7 6 7 6 6 6 6
-2 -3 -2 -2 -2 -1 -1 0 -0 -0 1 2 2 4 5 5 6 8 8 7 7 8 7 7 7 7 7 6 6 6 6 6
-4 -4 -4 -3 -2 -2 -1 -1 -0 -1 0 1 2 2 5 5 5 6 8 7 7 7 7 7 6 7 6 6 6 6 6 6
-5 -4 -4 -3 -3 -4 -4 -2 -1 -1 0 2 2 2 3 4 4 6 6 7 7 7 7 6 6 6 6 6 6 6 5 5
-6 -5 -4 -4 -3 -4 -4 -4 -2 -2 -1 0 1 1 2 3 5 4 5 5 5 4 5 6 5 5 5 6 6 6 6 5
-7 -6 -5 -4 -3 -2 -3 -3 -4 -3 -2 -0 0 1 1 3 3 4 3 4 3 6 5 4 5 6 5 5 6 6 6 5
-7 -7 -6 -6 -4 -3 -4 -3 -3 -2 -2 -1 -0 2 2 2 3 3 3 3 2 1 1 3 4 5 5 5 5 5 5 5
-7 -7 -6 -6 -5 -5 -5 -5 -4 -3 -1 -2 0 2 2 2 2 2 1 1 1 1 1 2 4 4 4 5 5 5 4 4
-7 -7 -7 -7 -6 -6 -6 -4 -4 -3 -2 -0 -0 1 1 2 2 2 2 1 1 1 2 3 3 3 5 5 5 5 4 4
-7 -7 -7 -7 -6 -7 -6 -5 -3 -2 -2 -0 0 0 0 0 0 1 0 1 -0 0 1 1 3 3 3 4 4 4 3 3
-7 -7 -7 -7 -7 -7 -6 -6 -4 -2 -1 -1 -1 -1 0 -0 -0 0 0 1 1 1 1 1 2 2 3 3 3 3 3 3
-7 -7 -6 -7 -7 -7 -6 -6 -5 -3 -3 -2 -1 -1 -0 -0 0 -0 -0 0 1 0 1 2 2 2 2 2 2 2 2 2
-6 -7 -7 -7 -7 -8 -8 -7 -6 -5 -4 -4 -3 -2 -2 -1 -1 -1 -1 -0 -1 0 0 0 0 0 0 0 1 2 2 1
-7 -7 -7 -7 -7 -7 -7 -7 -6 -5 -6 -5 -5 -4 -5 -3 -3 -3 -2 -1 -1 -2 -2 -2 -0 -1 -1 -1 -1 -0 0 -0
-6 -6 -6 -6 -5 -5 -5 -5 -4 -4 -4 -4 -3 -4 -3 -3 -3 -2 -2 -2 -2 -2 -2 -2 -2 -2 -2 -2 -2 -3 -2 -2
-6 -6 -6 -6 -6 -6 -6 -5 -5 -4 -4 -4 -4 -3 -3 -3 -3 -2 -2 -1 -2 -2 -2 -2 -2 -2 -2 -2 -2 -2 -2 -2

GFSFLT1_700_temp_135.txt.gz
Temp
1 1 1 1 1 1 2 2 1 2 4 4 4 7 7 7 7 6 7 8 8 8 8 8 7 7 8 7 7 7 7 6
1 1 1 1 1 2 3 3 2 1 2 3 3 4 6 6 7 6 6 6 8 8 8 8 7 7 7 7 7 7 7 6
2 1 1 1 2 3 2 1 2 1 2 3 2 2 4 6 5 6 6 5 7 7 7 8 8 7 7 7 7 7 6 6
1 1 0 1 1 1 1 1 1 1 2 2 2 2 2 4 5 5 6 6 7 7 7 7 7 7 7 7 7 7 6 6
-0 -0 -1 -1 -0 -1 -0 -0 1 1 1 1 1 2 2 2 4 4 5 6 7 8 7 7 7 7 7 7 7 7 6 6
-1 -2 -2 -2 -1 -0 -1 -1 0 0 -0 -1 -0 1 2 2 1 3 4 5 6 5 7 7 7 7 7 6 6 6 6 6
-2 -3 -3 -3 -2 -2 -2 -1 -0 -0 -1 -2 -1 0 1 2 1 1 3 4 5 5 5 7 7 6 6 6 6 6 6 6
-3 -4 -3 -3 -3 -3 -2 -3 -2 -2 -1 -2 -1 -0 0 0 2 2 3 4 4 4 5 5 5 5 6 6 6 6 6 5
-5 -5 -5 -4 -5 -4 -4 -3 -3 -3 -4 -3 -2 -1 -2 -1 1 2 -0 3 4 4 2 4 5 4 5 5 5 5 5 5
-5 -6 -6 -6 -6 -6 -6 -4 -3 -2 -2 -4 -4 -3 -3 -2 -1 2 1 2 3 3 3 1 3 3 4 5 4 4 4 4
-6 -7 -7 -7 -7 -7 -7 -6 -5 -6 -5 -3 -3 -3 -3 -2 -1 2 1 2 2 3 2 1 2 3 3 2 4 3 2 2
-7 -7 -7 -7 -7 -6 -7 -6 -6 -6 -5 -4 -3 -2 -1 -1 1 2 1 1 2 2 1 1 2 1 1 1 2 3 4 4
-7 -7 -7 -7 -7 -7 -6 -5 -7 -6 -5 -3 -4 -3 -2 -1 -0 1 2 1 0 -0 1 1 -0 -0 -0 1 2 2 3 3
-7 -7 -7 -6 -7 -7 -7 -6 -6 -6 -6 -4 -2 -1 -1 -1 -0 -0 -0 -0 1 0 0 0 -0 -0 0 1 2 1 2 2
-6 -7 -6 -6 -7 -6 -7 -7 -7 -6 -6 -5 -3 -2 -1 -1 -1 -1 -0 -1 -0 -0 -0 0 -1 -0 -0 0 1 1 1 1
-6 -6 -6 -7 -7 -7 -7 -6 -7 -7 -6 -5 -5 -4 -4 -3 -2 -2 -1 -1 -1 -0 -0 -1 -1 -1 -1 -0 0 0 -0 -0
-6 -6 -7 -6 -6 -6 -6 -6 -5 -6 -5 -6 -6 -6 -5 -5 -5 -4 -3 -2 -2 -2 -2 -3 -2 -1 -1 -1 -1 -1 -0 -0
-6 -6 -6 -6 -6 -6 -5 -5 -5 -4 -5 -4 -4 -5 -4 -4 -4 -4 -4 -3 -3 -3 -3 -3 -2 -2 -2 -2 -2 -2 -2 -1
-6 -6 -6 -6 -6 -6 -6 -6 -6 -5 -5 -5 -5 -4 -4 -4 -4 -4 -3 -4 -3 -3 -3 -3 -3 -2 -2 -2 -2 -2 -2 -2

GFSFLT1_700_temp_141.txt.gz
Temp
3 3 3 3 2 2 2 3 3 4 4 5 6 5 5 5 5 4 3 4 4 5 5 5 6 5 5 6 6 6 6 6
3 3 2 2 2 2 2 3 4 4 4 5 5 5 6 6 5 5 4 3 4 4 5 5 5 5 5 5 6 5 6 6
2 2 2 2 2 2 3 3 3 4 4 4 5 5 5 5 5 5 4 4 3 4 4 5 3 3 4 4 5 5 5 5
2 2 2 2 2 3 3 3 3 3 3 4 4 5 5 4 4 4 4 3 3 3 4 4 3 2 3 3 4 5 6 5
1 1 1 2 3 3 2 1 2 2 2 2 2 3 4 4 4 4 4 3 3 3 3 4 3 3 3 4 3 4 5 5
0 1 2 2 1 1 0 -0 0 1 1 2 3 3 3 3 4 4 3 2 3 2 2 3 4 3 4 3 4 4 4 5
1 1 1 0 -0 -1 -1 -1 -0 0 1 0 0 1 2 2 2 2 2 2 2 2 2 2 3 4 2 3 3 3 4 5
1 0 0 -0 -1 -2 -2 -1 -1 -0 -0 0 0 0 0 1 2 1 0 -0 0 1 1 1 2 3 4 2 2 3 2 3
-0 -1 -1 -2 -3 -3 -3 -3 -2 -1 -1 -0 1 -0 -1 -2 -3 -2 -1 -1 -1 -1 0 1 1 2 3 2 1 3 2 2
-1 -2 -2 -4 -4 -4 -4 -4 -3 -3 -3 -3 -2 -3 -4 -4 -3 -2 -2 -3 -3 -2 -2 -0 1 2 3 3 2 4 3 3
-2 -3 -4 -5 -5 -5 -6 -5 -5 -5 -6 -5 -7 -6 -5 -4 -4 -4 -5 -4 -4 -3 -1 -0 -0 1 3 3 3 2 4 3
-3 -4 -5 -6 -6 -6 -6 -6 -6 -6 -7 -6 -7 -6 -6 -5 -4 -3 -4 -3 -2 -2 -2 -0 -0 1 1 2 1 2 1 5
-4 -5 -5 -6 -6 -6 -6 -6 -7 -7 -7 -6 -7 -7 -6 -5 -4 -3 -4 -3 -2 -1 -1 -0 -0 0 2 1 1 1 1 2
-5 -6 -6 -6 -6 -6 -5 -6 -6 -6 -7 -7 -6 -6 -6 -6 -6 -4 -3 -3 -1 -1 -1 -0 -0 0 1 2 1 1 0 0
-5 -5 -5 -5 -6 -5 -6 -6 -6 -6 -5 -6 -7 -6 -7 -5 -6 -5 -4 -2 -2 -2 -1 -0 -0 0 0 0 1 0 -1 -1
-5 -5 -5 -6 -6 -5 -6 -6 -6 -6 -6 -6 -6 -6 -6 -6 -7 -7 -6 -4 -3 -3 -2 -1 -1 -1 -0 -0 -1 -1 -2 -1
-5 -5 -6 -6 -6 -6 -6 -6 -6 -6 -6 -5 -6 -5 -5 -5 -5 -5 -5 -4 -4 -5 -5 -4 -3 -2 -2 -2 -3 -3 -3 -3
-6 -6 -6 -6 -6 -6 -6 -6 -6 -6 -6 -5 -6 -6 -5 -5 -5 -4 -4 -3 -4 -3 -3 -3 -3 -3 -3 -3 -3 -3 -3 -2
-6 -6 -6 -6 -6 -6 -6 -7 -7 -6 -6 -6 -6 -5 -5 -5 -5 -4 -4 -4 -3 -3 -3 -3 -3 -2 -2 -2 -2 -2 -2 -2

GFSFLT1_700_temp_144.txt.gz
Temp
3 3 3 3 3 3 3 3 3 3 3 3 4 4 5 5 5 6 5 5 4 4 5 5 4 5 4 5 6 6 6 4
3 3 3 3 3 3 2 2 3 3 3 3 4 5 5 5 5 5 6 6 5 5 4 5 5 3 4 5 6 5 5 5
2 2 2 2 2 2 2 2 2 3 3 4 4 4 5 5 5 5 5 6 5 5 5 4 5 5 3 3 4 4 4 5
1 1 1 2 2 2 2 2 3 3 3 4 4 4 4 4 4 4 5 4 4 4 4 4 4 4 4 4 4 5 4 4
1 1 1 1 1 2 2 2 2 2 3 3 3 3 4 4 4 4 3 3 3 3 3 3 4 3 4 5 4 3 2 3
0 0 0 1 1 2 2 2 1 1 1 1 1 2 3 3 4 4 4 3 3 3 2 3 3 3 3 3 4 4 3 1
-1 -0 0 1 1 1 1 1 0 -0 -0 1 1 1 1 2 3 3 3 3 2 2 2 2 2 2 3 2 3 4 4 3
-1 -0 0 0 0 0 0 -1 -1 -1 -1 0 -0 1 2 1 1 2 1 0 0 -0 0 1 2 2 2 2 2 3 4 3
-1 -1 -1 -1 -1 -1 -2 -2 -2 -2 -1 -1 -0 0 1 -0 0 0 -1 -2 -2 -2 -1 -0 1 1 1 1 2 2 2 3
-2 -2 -2 -2 -2 -3 -3 -3 -4 -3 -3 -2 -2 -1 -1 -2 -1 -2 -3 -3 -3 -2 -2 -1 -0 -0 0 1 1 1 2 2
-2 -2 -3 -3 -4 -4 -5 -5 -5 -5 -5 -3 -3 -2 -2 -2 -3 -4 -4 -4 -5 -5 -3 -3 -2 -2 -0 0 1 1 2 4
-3 -3 -3 -4 -5 -5 -5 -5 -6 -6 -7 -5 -5 -5 -5 -5 -5 -4 -3 -3 -3 -4 -3 -3 -3 -2 -2 -0 -0 0 1 2
-4 -4 -4 -4 -4 -5 -4 -5 -6 -6 -7 -7 -7 -7 -7 -7 -5 -7 -4 -3 -3 -2 -3 -3 -2 -2 -2 -1 -0 1 1 2
-4 -4 -4 -4 -5 -5 -5 -5 -5 -5 -6 -7 -7 -7 -6 -7 -6 -6 -5 -5 -5 -5 -4 -2 -1 -1 -0 -0 0 0 1 1
-4 -4 -4 -5 -5 -5 -5 -5 -5 -6 -6 -6 -5 -5 -6 -6 -7 -6 -6 -6 -5 -6 -5 -6 -2 -1 -1 -1 -0 -0 -0 0
-5 -5 -5 -5 -5 -5 -5 -6 -6 -6 -6 -6 -6 -6 -6 -6 -5 -5 -5 -4 -5 -6 -5 -5 -4 -4 -3 -3 -2 -2 -2 -1
-5 -5 -5 -6 -6 -6 -6 -6 -6 -6 -6 -6 -6 -6 -6 -6 -6 -6 -5 -5 -5 -5 -5 -5 -5 -4 -5 -5 -4 -3 -2 -2
-5 -6 -6 -6 -6 -6 -6 -6 -6 -6 -6 -6 -6 -6 -6 -6 -6 -6 -5 -5 -5 -5 -4 -4 -4 -4 -4 -4 -4 -4 -4 -3
-6 -6 -6 -7 -6 -6 -6 -6 -7 -7 -7 -6 -6 -6 -6 -6 -6 -6 -5 -6 -5 -5 -4 -4 -4 -4 -4 -4 -4 -4 -3 -3

GFSFLT1_700_temp_150.txt.gz
Temp
4 4 4 3 3 3 3 3 3 3 3 3 4 4 4 4 5 5 5 6 6 5 6 6 5 5 5 5 5 5 4 5
3 3 3 3 3 2 2 2 2 2 2 3 3 4 4 4 5 5 5 5 5 6 6 5 5 5 4 4 5 5 4 4
3 3 2 2 2 2 2 2 1 2 2 3 3 4 4 5 5 5 5 5 5 5 5 5 5 5 5 4 4 5 5 4
2 2 2 1 1 1 1 1 1 2 2 3 3 3 3 4 4 4 4 4 4 4 4 5 5 5 5 5 4 4 4 5
1 1 0 -0 -0 -0 0 1 1 2 2 2 2 3 3 3 3 3 3 4 4 4 4 4 5 5 5 5 4 4 4 4
0 -0 -0 -1 -1 -0 0 0 0 1 1 1 2 2 2 2 2 2 3 3 3 3 3 3 4 4 4 4 3 3 3 3
-1 -1 -1 -1 -1 -1 -1 -1 -1 -0 -0 0 0 0 0 1 2 3 2 2 1 1 1 1 1 2 3 3 3 2 2 2
-1 -2 -2 -1 -1 -2 -2 -2 -2 -2 -2 -2 -1 -1 -0 0 1 1 0 -0 -1 -1 -1 0 0 0 1 1 1 1 1 2
-2 -2 -2 -2 -2 -2 -3 -3 -3 -3 -3 -3 -3 -3 -2 -1 -1 -0 0 0 -0 -1 -0 -0 -1 -1 -0 0 -0 -0 -0 1
-2 -2 -2 -2 -2 -3 -3 -3 -3 -3 -4 -4 -4 -4 -3 -3 -3 -3 -2 -2 -2 -0 -0 -0 -0 -0 -1 -1 -1 -1 -2 -1
-2 -2 -2 -3 -3 -3 -3 -3 -3 -4 -4 -4 -4 -4 -5 -4 -4 -4 -4 -3 -3 -2 -2 -2 -1 -1 -2 -2 -3 -3 -3 -2
-2 -2 -3 -3 -4 -4 -4 -4 -4 -4 -4 -4 -4 -4 -5 -5 -5 -5 -5 -5 -5 -4 -3 -3 -3 -2 -4 -4 -3 -3 -2 -1
-3 -3 -4 -4 -4 -4 -4 -4 -4 -4 -4 -4 -5 -4 -5 -5 -5 -5 -6 -6 -6 -6 -6 -5 -3 -4 -3 -2 -3 -3 -3 -2
-3 -4 -4 -5 -5 -5 -4 -5 -5 -5 -5 -5 -5 -5 -4 -5 -5 -5 -6 -6 -7 -6 -6 -7 -7 -6 -4 -2 -4 -3 -3 -3
-4 -5 -5 -6 -5 -5 -5 -5 -5 -5 -5 -5 -6 -5 -5 -5 -5 -5 -6 -6 -6 -6 -6 -6 -7 -7 -6 -5 -5 -6 -5 -4
-5 -5 -6 -6 -6 -6 -6 -6 -6 -6 -6 -6 -6 -6 -6 -6 -6 -6 -6 -6 -6 -6 -6 -5 -5 -4 -6 -6 -7 -7 -6 -6
-5 -6 -6 -6 -6 -6 -6 -6 -6 -6 -7 -6 -6 -6 -6 -7 -6 -6 -6 -6 -6 -6 -6 -5 -5 -5 -5 -5 -5 -5 -4 -4
-6 -6 -7 -7 -6 -7 -7 -7 -7 -7 -7 -7 -7 -7 -7 -7 -7 -7 -6 -6 -6 -6 -6 -5 -5 -5 -5 -5 -5 -5 -5 -4
-6 -7 -7 -7 -7 -7 -7 -7 -7 -7 -7 -7 -8 -7 -7 -7 -7 -7 -7 -6 -6 -6 -6 -6 -6 -6 -6 -6 -5 -5 -5 -5

GFSFLT1_700_temp_153.txt.gz
Temp
4 4 4 3 3 3 3 3 3 3 3 3 3 3 4 4 4 4 5 5 5 5 6 6 6 6 5 5 5 5 5 5
4 3 3 3 3 3 2 2 2 2 2 2 3 3 3 3 4 4 4 5 5 5 6 6 6 6 5 5 5 5 5 4
4 3 3 3 2 2 2 1 1 1 1 2 2 3 3 3 4 4 4 5 5 5 5 6 6 5 5 5 5 4 4 4
3 3 2 2 2 1 1 1 1 1 1 1 2 2 2 3 3 4 4 4 4 4 5 5 5 4 4 4 3 4 4 4
2 2 1 1 0 0 0 -0 -0 0 1 1 2 2 2 3 3 3 3 3 3 4 4 4 4 4 4 3 3 3 2 3
1 1 -0 -0 -1 -1 -1 -1 -1 -0 0 0 1 1 1 1 2 2 2 3 3 3 4 4 3 3 3 3 3 3 3 2
0 -1 -1 -1 -1 -1 -1 -1 -1 -1 -1 -1 -1 -1 -1 -1 -1 0 1 1 1 2 2 2 1 1 1 1 1 1 1 1
-0 -1 -1 -2 -2 -2 -2 -2 -2 -3 -2 -2 -2 -2 -2 -2 -2 -1 -0 0 0 0 0 0 0 0 0 0 1 1 1 2
-1 -1 -2 -2 -2 -2 -2 -3 -3 -3 -3 -3 -3 -3 -3 -3 -3 -3 -2 -0 0 -0 -1 -1 -1 -1 -0 -0 0 0 0 -0
-1 -1 -2 -2 -2 -3 -3 -3 -3 -3 -3 -3 -3 -3 -3 -3 -4 -4 -3 -3 -2 -1 -1 -2 -1 -1 -1 -1 -1 -1 -1 -1
-1 -2 -2 -2 -3 -3 -3 -4 -3 -3 -3 -3 -3 -3 -3 -3 -4 -4 -4 -5 -4 -4 -3 -3 -2 -1 -1 -2 -2 -2 -2 -2
-2 -2 -2 -3 -3 -4 -4 -4 -4 -4 -4 -4 -4 -4 -4 -4 -4 -4 -5 -5 -6 -6 -6 -5 -5 -4 -2 -2 -3 -3 -3 -4
-3 -3 -3 -4 -4 -4 -5 -4 -4 -4 -4 -4 -4 -4 -4 -5 -5 -5 -5 -5 -6 -6 -7 -7 -6 -6 -6 -5 -4 -4 -4 -3
-4 -4 -4 -4 -5 -5 -5 -5 -5 -5 -5 -5 -5 -5 -5 -5 -6 -5 -5 -5 -6 -5 -6 -6 -6 -6 -6 -7 -7 -6 -5 -4
-4 -5 -4 -5 -5 -6 -6 -5 -5 -5 -5 -5 -5 -6 -5 -6 -6 -6 -6 -6 -6 -5 -5 -6 -6 -5 -6 -7 -7 -7 -6 -6
-4 -5 -5 -5 -6 -7 -7 -6 -6 -6 -6 -6 -6 -6 -6 -6 -6 -6 -6 -6 -6 -6 -6 -6 -6 -6 -6 -6 -5 -5 -6 -7
-4 -5 -5 -6 -7 -7 -7 -7 -7 -7 -7 -7 -7 -7 -7 -7 -7 -6 -6 -6 -6 -6 -6 -6 -6 -6 -6 -6 -6 -6 -5 -5
-5 -5 -6 -7 -7 -7 -7 -7 -7 -7 -7 -7 -7 -7 -7 -7 -7 -7 -7 -7 -7 -7 -7 -6 -6 -6 -6 -6 -6 -6 -5 -5
-5 -6 -7 -7 -8 -8 -7 -7 -7 -7 -8 -8 -8 -8 -8 -8 -8 -8 -7 -7 -7 -7 -7 -7 -7 -7 -6 -6 -6 -6 -5 -5

GFSFLT1_700_temp_156.txt.gz
Temp
5 5 5 4 4 4 4 4 3 3 3 3 3 3 3 3 3 4 4 5 5 5 5 5 6 6 6 5 6 5 5 5
5 4 4 4 4 3 3 3 3 2 2 2 2 2 2 3 3 3 3 4 4 4 5 5 5 5 5 5 5 5 5 5
4 4 3 3 3 2 2 2 1 2 2 2 2 2 2 2 3 3 3 3 4 4 5 5 5 5 5 5 4 5 5 4
3 3 2 2 2 1 1 1 1 1 0 1 1 1 1 2 2 2 3 3 4 4 5 5 5 5 5 4 4 4 4 3
3 2 2 2 1 1 0 0 -0 -0 0 0 1 1 1 1 2 2 2 3 3 4 4 4 4 4 4 4 4 3 3 3
2 1 1 1 0 -0 -1 -1 -1 -1 -0 -0 -0 -0 -0 -0 -0 -0 -0 0 1 2 3 3 3 3 3 3 2 2 2 2
1 1 0 -0 -1 -1 -1 -1 -1 -1 -1 -2 -2 -2 -2 -2 -2 -2 -2 -1 0 1 2 3 3 3 2 1 0 0 1 1
1 0 0 -1 -1 -2 -2 -2 -2 -2 -2 -2 -2 -2 -3 -3 -3 -3 -2 -2 -1 0 1 2 2 1 0 -0 -0 -0 -0 -0
0 -0 -1 -1 -1 -2 -2 -3 -3 -3 -3 -3 -3 -3 -3 -3 -3 -3 -3 -3 -2 -2 -1 -1 -1 -1 -2 -2 -1 -1 -1 -1
-1 -1 -1 -1 -2 -2 -3 -3 -3 -4 -3 -3 -3 -3 -3 -3 -3 -3 -3 -3 -3 -4 -4 -4 -3 -3 -3 -2 -2 -2 -2 -2
-1 -1 -2 -2 -2 -3 -3 -4 -4 -4 -4 -3 -3 -3 -3 -3 -4 -4 -4 -4 -4 -5 -5 -5 -5 -4 -3 -3 -3 -3 -3 -2
-1 -2 -3 -3 -3 -3 -4 -4 -4 -4 -4 -4 -4 -4 -4 -4 -4 -4 -4 -4 -4 -5 -5 -6 -6 -6 -5 -5 -4 -4 -4 -4
-2 -2 -2 -3 -4 -4 -5 -5 -5 -5 -5 -5 -5 -4 -4 -4 -4 -4 -4 -5 -5 -5 -5 -5 -6 -6 -6 -6 -6 -6 -4 -4
-3 -3 -4 -4 -5 -5 -5 -5 -6 -5 -5 -5 -5 -5 -5 -5 -5 -5 -5 -5 -5 -5 -5 -5 -5 -6 -5 -5 -6 -7 -7 -7
-3 -4 -4 -5 -5 -6 -6 -6 -7 -6 -6 -6 -6 -6 -6 -6 -6 -6 -6 -5 -6 -6 -6 -6 -5 -6 -5 -5 -5 -5 -6 -7
-3 -4 -4 -5 -5 -6 -7 -7 -8 -7 -6 -6 -6 -6 -6 -6 -6 -6 -6 -6 -6 -6 -6 -6 -6 -6 -6 -6 -5 -5 -5 -6
-3 -4 -4 -5 -6 -7 -7 -8 -7 -7 -7 -7 -7 -7 -7 -7 -7 -7 -7 -7 -7 -7 -7 -6 -6 -6 -6 -6 -6 -6 -6 -6
-4 -4 -5 -6 -6 -7 -8 -8 -7 -7 -7 -7 -7 -7 -7 -7 -7 -7 -7 -7 -7 -7 -7 -7 -7 -7 -7 -7 -7 -7 -7 -6
-4 -5 -6 -6 -7 -7 -8 -7 -7 -7 -7 -7 -7 -8 -8 -8 -8 -8 -8 -8 -8 -8 -8 -7 -7 -7 -7 -7 -7 -7 -7 -7

GFSFLT1_700_temp_159.txt.gz
Temp
6 6 5 5 4 4 4 3 3 3 3 3 3 3 3 3 3 4 4 4 5 5 5 6 6 6 6 6 6 6 6 6
5 5 4 4 3 3 3 3 2 2 2 2 2 2 2 2 2 2 3 3 3 4 4 5 5 5 5 5 5 5 5 5
4 5 4 4 3 2 2 2 2 1 1 1 1 1 1 1 2 2 2 3 3 3 4 4 4 5 5 5 5 5 5 4
3 4 3 2 2 2 2 1 1 0 0 0 0 0 0 0 1 1 1 2 2 3 3 3 4 4 4 4 4 4 4 3
1 3 2 2 2 1 1 0 -0 -1 -1 -1 -0 -0 -0 -0 -0 -0 -0 0 1 1 2 2 3 3 3 3 3 3 3 3
2 2 1 1 1 1 1 -0 -1 -1 -1 -1 -1 -1 -1 -1 -2 -2 -2 -2 -1 -0 0 1 1 2 3 3 3 2 2 2
2 1 1 1 0 0 0 -0 -1 -2 -2 -2 -2 -2 -2 -2 -2 -2 -2 -2 -2 -1 -1 0 1 2 2 2 1 1 0 -0
1 1 1 0 -0 -0 -1 -1 -2 -2 -2 -2 -3 -2 -3 -2 -2 -2 -2 -3 -2 -2 -1 -1 -0 0 0 1 -0 -1 -1 -0
-0 -0 -1 -1 -1 -1 -2 -2 -2 -2 -3 -3 -3 -3 -3 -3 -3 -3 -3 -3 -3 -3 -3 -4 -4 -3 -3 -2 -2 -2 -2 -2
-0 -1 -1 -1 -1 -2 -2 -2 -3 -3 -4 -4 -4 -3 -3 -3 -3 -3 -3 -3 -4 -4 -4 -5 -5 -5 -5 -4 -3 -3 -3 -3
-1 -1 -1 -1 -2 -3 -3 -3 -3 -4 -4 -4 -4 -4 -4 -4 -4 -4 -4 -4 -4 -4 -5 -5 -5 -5 -5 -5 -5 -4 -4 -3
-1 -2 -2 -2 -2 -3 -3 -4 -4 -5 -5 -5 -4 -4 -4 -4 -4 -4 -4 -4 -4 -4 -5 -4 -5 -5 -5 -5 -6 -5 -5 -4
-2 -2 -3 -3 -3 -4 -4 -5 -5 -6 -6 -6 -5 -5 -5 -5 -5 -5 -5 -5 -5 -5 -5 -5 -5 -5 -5 -5 -5 -6 -6 -6
-2 -3 -3 -3 -4 -5 -5 -5 -6 -7 -7 -6 -6 -5 -5 -5 -5 -5 -5 -5 -5 -5 -5 -5 -5 -5 -5 -5 -5 -5 -6 -6
-3 -3 -3 -4 -5 -5 -5 -5 -7 -7 -7 -7 -6 -6 -6 -6 -6 -6 -6 -6 -6 -6 -6 -6 -6 -6 -6 -5 -5 -5 -5 -6
-3 -4 -4 -4 -5 -5 -6 -6 -7 -8 -8 -7 -6 -6 -6 -6 -7 -7 -7 -7 -6 -6 -6 -6 -6 -7 -6 -6 -6 -6 -6 -6
-3 -4 -4 -5 -5 -6 -6 -7 -7 -8 -7 -7 -7 -7 -7 -7 -7 -7 -7 -7 -7 -7 -7 -7 -7 -7 -7 -7 -7 -7 -7 -6
-3 -4 -5 -5 -6 -6 -7 -7 -8 -7 -7 -7 -7 -7 -7 -7 -8 -8 -8 -8 -8 -7 -8 -8 -7 -7 -7 -7 -7 -7 -7 -7
-4 -5 -5 -6 -6 -7 -7 -8 -8 -7 -7 -7 -8 -8 -8 -8 -8 -8 -8 -8 -8 -8 -8 -8 -8 -8 -8 -8 -8 -8 -7 -7